Location: Breitenfeld
(46.8500°N, 15.6333°E)
Time: 03:16:53
(UTC+00:00)

FALCON 9 DEB - Pass Details

Date: 09 April 2020
Orbit: 429 x 442 km, 53.0° (Epoch: 26 May)

Event Time Altitude Azimuth Distance (km) Brightness Sun altitude
Rises 19:27:42 0° 251° (WSW) 2,426 7.5 -18.0°
Reaches altitude 10° 19:29:51 10° 255° (WSW) 1,558 6.5 -18.3°
Maximum altitude 19:33:19 58° 336° (NNW) 521 3.7 -18.8°
Enters shadow 19:35:12 24° 48° (NE) 957 4.7 -19.0°
